EB7GYR Weather Reports


time (UTC)temp
C
wind
direction
speed
KPH
gust
KPH
rain 1hr
cm
rain 24hr
cm
rain mn
cm
humidity
%
barometer
mb
20260507150517 21 203 12.9 29.0 0.00 0.00 0.00 52 1008.8
20260507145517 21 180 11.3 19.3 0.00 0.00 0.00 55 1008.9
20260507144516 20 203 12.9 24.1 0.00 0.00 0.00 55 1009.0
20260507143517 21 225 14.5 27.4 0.00 0.00 0.00 54 1009.1
20260507142517 21 225 16.1 27.4 0.00 0.00 0.00 53 1009.1
20260507141517 21 225 14.5 27.4 0.00 0.00 0.00 52 1009.3
20260507140517 21 225 11.3 24.1 0.00 0.00 0.00 54 1009.2
20260507135536 21 203 14.5 25.7 0.00 0.00 0.00 54 1009.3
20260507134517 21 203 12.9 22.5 0.00 0.00 0.00 57 1009.3
20260507133516 20 203 14.5 32.2 0.00 0.00 0.00 58 1009.4
20260507132516 20 203 17.7 30.6 0.00 0.00 0.00 58 1009.6
20260507131516 21 203 12.9 30.6 0.00 0.00 0.00 58 1009.5
20260507130536 20 203 14.5 30.6 0.00 0.00 0.00 57 1009.6
20260507125517 20 203 16.1 27.4 0.00 0.00 0.00 57 1009.6
20260507124556 20 203 14.5 29.0 0.00 0.00 0.00 57 1009.8
20260507123558 20 203 14.5 29.0 0.00 0.00 0.00 58 1009.9
20260507122516 20 203 14.5 33.8 0.00 0.00 0.00 57 1009.9
20260507121518 20 203 12.9 27.4 0.00 0.00 0.00 57 1009.9
20260507120516 20 203 12.9 25.7 0.00 0.00 0.00 57 1009.9
20260507115537 20 203 14.5 32.2 0.00 0.00 0.00 59 1010.1
20260507114516 20 225 12.9 37.0 0.00 0.00 0.00 61 1010.1
20260507113516 20 225 16.1 30.6 0.00 0.00 0.00 61 1010.2
20260507112516 19 225 12.9 29.0 0.00 0.00 0.00 63 1010.1
20260507111516 19 225 16.1 25.7 0.00 0.00 0.00 63 1010.1
20260507110518 19 203 12.9 27.4 0.00 0.00 0.00 64 1010.1
20260507105516 19 203 16.1 29.0 0.00 0.00 0.00 63 1010.1
20260507104557 19 225 16.1 27.4 0.00 0.00 0.00 63 1010.1
20260507103517 19 203 12.9 30.6 0.00 0.00 0.00 63 1010.0
20260507102516 19 180 12.9 27.4 0.00 0.00 0.00 64 1010.1
20260507101536 18 203 11.3 22.5 0.00 0.00 0.00 64 1010.1
20260507100516 18 203 12.9 27.4 0.00 0.00 0.00 63 1010.1
20260507095516 18 225 16.1 35.4 0.00 0.00 0.00 62 1010.1
20260507094536 19 225 12.9 25.7 0.00 0.00 0.00 62 1010.1
20260507093516 19 225 11.3 25.7 0.00 0.00 0.00 63 1010.0
20260507092516 18 225 9.7 16.1 0.00 0.00 0.00 65 1010.1
20260507091516 18 180 14.5 29.0 0.00 0.00 0.00 67 1010.0
20260507090516 18 180 14.5 25.7 0.00 0.00 0.00 69 1010.0
20260507085517 18 158 14.5 22.5 0.00 0.00 0.00 71 1010.0
20260507084517 18 180 11.3 24.1 0.00 0.00 0.00 71 1009.8
20260507083517 18 180 11.3 24.1 0.00 0.00 0.00 72 1009.7
20260507082517 18 180 11.3 19.3 0.00 0.00 0.00 73 1009.7
20260507081537 17 180 12.9 22.5 0.00 0.00 0.00 74 1009.7
20260507080516 17 158 12.9 22.5 0.00 0.00 0.00 76 1009.7
20260507075516 17 158 9.7 17.7 0.00 0.00 0.00 78 1009.5
20260507074516 16 158 11.3 20.9 0.00 0.00 0.00 80 1009.4
20260507073516 16 158 12.9 19.3 0.00 0.00 0.00 81 1009.3
20260507072517 15 158 12.9 20.9 0.00 0.00 0.00 82 1009.2
20260507071536 15 135 11.3 17.7 0.00 0.00 0.00 83 1009.3
20260507070516 15 135 11.3 17.7 0.00 0.00 0.00 84 1009.2
20260507065517 14 158 11.3 17.7 0.00 0.00 0.00 85 1009.1
20260507064516 14 158 11.3 14.5 0.00 0.00 0.00 86 1009.0
20260507063536 13 158 9.7 14.5 0.00 0.00 0.00 86 1008.9
20260507062517 13 158 6.4 12.9 0.00 0.00 0.00 87 1008.9
20260507061518 13 158 9.7 14.5 0.00 0.00 0.00 87 1008.9
20260507060538 13 135 9.7 16.1 0.00 0.00 0.00 86 1008.7
20260507055518 13 135 6.4 16.1 0.00 0.00 0.00 86 1008.6
20260507054518 13 158 9.7 16.1 0.00 0.00 0.00 86 1008.4
20260507053517 13 158 8.0 12.9 0.00 0.00 0.00 86 1008.2
20260507052518 13 158 9.7 16.1 0.00 0.00 0.00 86 1008.3
20260507051517 13 158 8.0 12.9 0.00 0.00 0.00 86 1008.3
20260507050517 13 180 6.4 11.3 0.00 0.00 0.00 86 1008.2
20260507045517 13 158 8.0 12.9 0.00 0.00 0.00 86 1008.2
20260507044518 13 158 9.7 16.1 0.00 0.00 0.00 86 1008.2
20260507043518 13 158 8.0 14.5 0.00 0.00 0.00 86 1008.0
20260507042557 13 158 11.3 19.3 0.00 0.00 0.00 87 1008.0
20260507041538 13 158 11.3 20.9 0.00 0.00 0.00 87 1007.9
20260507040517 13 135 16.1 22.5 0.00 0.00 0.00 87 1007.8
20260507035517 13 135 11.3 17.7 0.00 0.00 0.00 87 1007.8
20260507034517 13 158 9.7 17.7 0.00 0.00 0.00 87 1008.0
20260507033519 13 158 9.7 17.7 0.00 0.00 0.00 87 1008.1
20260507032518 12 135 9.7 16.1 0.00 0.00 0.00 87 1008.1
20260507031519 12 158 9.7 17.7 0.00 0.00 0.00 87 1008.2
20260507030517 12 158 8.0 14.5 0.00 0.00 0.00 87 1008.1
20260507025517 12 135 11.3 17.7 0.00 0.00 0.00 86 1008.0
20260507024517 12 135 8.0 12.9 0.00 0.00 0.00 86 1007.9
20260507023518 12 135 6.4 16.1 0.00 0.00 0.00 86 1007.9
20260507022517 12 135 6.4 12.9 0.00 0.00 0.00 85 1007.8
20260507021537 12 135 6.4 16.1 0.00 0.00 0.00 85 1007.9
20260507020517 13 135 6.4 12.9 0.00 0.00 0.00 84 1007.9
20260507015518 13 135 4.8 9.7 0.00 0.00 0.00 84 1008.0
20260507014517 13 135 6.4 12.9 0.00 0.00 0.00 84 1008.0
20260507013517 13 135 8.0 14.5 0.00 0.00 0.00 84 1008.1
20260507012517 13 158 6.4 9.7 0.00 0.00 0.00 83 1008.2
20260507011517 13 158 4.8 9.7 0.00 0.00 0.00 83 1008.3
20260507010517 13 135 4.8 11.3 0.00 0.00 0.00 82 1008.4
20260507005517 13 135 3.2 6.4 0.00 0.00 0.00 82 1008.5
20260507004517 13 158 4.8 11.3 0.00 0.00 0.00 82 1008.7
20260507003517 13 158 6.4 9.7 0.00 0.00 0.00 81 1008.7
20260507002517 13 158 4.8 9.7 0.00 0.00 0.00 80 1008.8
20260507001517 14 158 4.8 9.7 0.00 0.00 0.00 80 1009.0
20260507000518 14 158 6.4 11.3 0.00 0.00 0.00 79 1009.0
20260506235517 14 158 4.8 8.0 0.00 0.00 0.00 79 1009.0
20260506234517 14 158 4.8 9.7 0.00 0.00 0.00 79 1009.0
20260506233518 15 180 6.4 12.9 0.00 0.00 0.00 78 1009.1
20260506232517 15 158 4.8 11.3 0.00 0.00 0.00 77 1009.1
20260506231518 15 158 4.8 8.0 0.00 0.00 0.00 77 1009.2
20260506230517 15 158 4.8 9.7 0.00 0.00 0.00 77 1009.2
20260506225517 15 158 6.4 11.3 0.00 0.00 0.00 76 1009.3
20260506224517 15 158 6.4 9.7 0.00 0.00 0.00 76 1009.2
20260506223518 15 158 4.8 9.7 0.00 0.00 0.00 76 1009.3
20260506222517 16 158 1.6 6.4 0.00 0.00 0.00 75 1009.3
20260506221517 16 180 6.4 9.7 0.00 0.00 0.00 74 1009.3
20260506220518 16 180 4.8 8.0 0.00 0.00 0.00 73 1009.2
20260506215537 16 180 4.8 8.0 0.00 0.00 0.00 73 1009.3
20260506214517 16 180 3.2 6.4 0.00 0.00 0.00 72 1009.3
20260506213557 16 180 3.2 4.8 0.00 0.00 0.00 72 1009.2
20260506212517 16 180 3.2 6.4 0.00 0.00 0.00 72 1009.2
20260506211517 16 203 1.6 6.4 0.00 0.00 0.00 71 1009.2
20260506210537 17 203 3.2 8.0 0.00 0.00 0.00 70 1009.1
20260506205518 17 180 3.2 9.7 0.00 0.00 0.00 70 1009.0
20260506204517 17 203 3.2 9.7 0.00 0.00 0.00 70 1008.9
20260506203518 17 203 3.2 11.3 0.00 0.00 0.00 69 1008.8
20260506202517 17 180 1.6 8.0 0.00 0.00 0.00 69 1008.8
20260506201517 17 225 6.4 14.5 0.00 0.00 0.00 69 1008.7
20260506200517 17 248 4.8 14.5 0.00 0.00 0.00 68 1008.7
20260506195518 17 225 6.4 16.1 0.00 0.00 0.00 68 1008.6
20260506194517 17 225 6.4 19.3 0.00 0.00 0.00 67 1008.5
20260506193517 17 225 8.0 17.7 0.00 0.00 0.00 66 1008.3
20260506192517 18 225 11.3 20.9 0.00 0.00 0.00 64 1008.2
20260506191517 18 248 8.0 19.3 0.00 0.00 0.00 63 1008.1
20260506190517 18 225 9.7 20.9 0.00 0.00 0.00 62 1008.0
20260506185517 18 248 9.7 19.3 0.00 0.00 0.00 60 1008.1
20260506184517 19 248 11.3 20.9 0.00 0.00 0.00 59 1008.0
20260506183517 19 248 12.9 27.4 0.00 0.00 0.00 58 1008.0
20260506182517 20 248 11.3 20.9 0.00 0.00 0.00 57 1007.9
20260506181517 20 248 11.3 20.9 0.00 0.00 0.00 56 1007.9
20260506180517 20 225 8.0 17.7 0.00 0.00 0.00 54 1007.8
20260506175517 21 270 9.7 20.9 0.00 0.00 0.00 48 1007.9
20260506174517 21 225 11.3 19.3 0.00 0.00 0.00 45 1007.9
20260506173517 21 225 12.9 25.7 0.00 0.00 0.00 45 1008.0
20260506172517 21 225 12.9 29.0 0.00 0.00 0.00 43 1008.0
20260506171518 21 225 9.7 19.3 0.00 0.00 0.00 42 1008.1
20260506170517 21 225 12.9 24.1 0.00 0.00 0.00 41 1008.1
20260506165518 22 248 11.3 30.6 0.00 0.00 0.00 41 1008.1
20260506164517 22 225 11.3 20.9 0.00 0.00 0.00 40 1008.0
20260506163516 22 270 11.3 22.5 0.00 0.00 0.00 40 1008.1
20260506162517 22 225 9.7 22.5 0.00 0.00 0.00 40 1008.1
20260506161517 22 225 9.7 19.3 0.00 0.00 0.00 40 1008.3
20260506160517 22 225 11.3 24.1 0.00 0.00 0.00 40 1008.2
20260506155517 22 270 12.9 22.5 0.00 0.00 0.00 39 1008.3
20260506154517 22 225 11.3 25.7 0.00 0.00 0.00 40 1008.3
20260506153517 22 248 12.9 22.5 0.00 0.00 0.00 40 1008.5
20260506152557 22 248 14.5 29.0 0.00 0.00 0.00 40 1008.6
20260506151517 22 225 11.3 25.7 0.00 0.00 0.00 40 1008.7